Regional Weather Roundup
Issued by NWS

Home | Current Version | Previous Version | Graphics & Text | Print | Product List | Glossary On
Versions: 1 2 3 4 5 6 7 8 9 10 11 12 13 14 15 16 17 18 19 20 21 22 23 24 25 26 27 28 29 30 31 32 33 34 35 36 37 38 39 40 41 42 43 44 45 46 47 48 49 50
000
ASUS43 KLMK 251102
RWRKY
KENTUCKY REGIONAL WEATHER ROUNDUP
NATIONAL WEATHER SERVICE LOUISVILLE KY
700 AM EDT SAT APR 25 2015

NOTE "FAIR" INDICATES FEW OR NO CLOUDS BELOW 12,000 FEET
WITH NO SIGNIFICANT WEATHER AND/OR OBSTRUCTIONS TO VISIBILITY.

KYZ001>023-026-027-061>063-070>075-251200-
WESTERN AND SOUTH CENTRAL KENTUCKY

CITY           SKY/WX    TMP DP  RH WIND       PRES   REMARKS
PADUCAH        CLOUDY    57  54  89 SE5       29.64S
HENDERSON      CLOUDY    54  48  82 E6        29.66F
OWENSBORO      CLOUDY    55  52  90 SE7       29.69F
HOPKINSVILLE   CLOUDY    57  56  94 E6        29.66F
BOWLING GREEN  CLOUDY    56  52  86 E6        29.72R
GLASGOW        NOT AVBL
$$

KYZ024-025-028>034-038-045-046-053-251200-
NORTH CENTRAL KENTUCKY

CITY           SKY/WX    TMP DP  RH WIND       PRES   REMARKS
LOUISVILLE/SDF CLOUDY    53  45  74 E9        29.76F
LOUISVILLE/LOU CLOUDY    52  45  77 E8        29.78F
FORT KNOX      CLOUDY    52  46  78 NE10      29.72F
$$

KYZ035>037-039>044-047>052-055>060-089>105-251200-
NORTHEAST KENTUCKY

CITY           SKY/WX    TMP DP  RH WIND       PRES   REMARKS
LEXINGTON      CLOUDY    50  45  83 E10       29.81S
COVINGTON      CLOUDY    49  39  68 E8        29.80F
FRANKFORT      CLOUDY    50  40  68 E9        29.79S
$$

KYZ054-064>069-076>088-106>120-251200-
SOUTHEAST KENTUCKY

CITY           SKY/WX    TMP DP  RH WIND       PRES   REMARKS
JACKSON        LGT RAIN  47  43  86 CALM      29.86R
LONDON         CLOUDY    56  42  59 CALM      29.82S
SOMERSET       NOT AVBL
MIDDLESBORO    RAIN      56  46  68 S5        29.84S
MONTICELLO     CLOUDY    57  49  75 SE9       29.82F
$$



USA.gov is the U.S. government's official web portal to all federal, state and local government web resources and services.